This is the latest recevied weather packets stored in our database for station/object W5COG. If no packets are shown the sender has not sent any weather packets the latest 10 day(s).
| Time | Temp. | Humidity | Pressure | Rain* | Wind** | Luminosity | Snow |
|---|---|---|---|---|---|---|---|
| 1778246729 | 15° C | 69% | 1013.1 hPa | 0 mm | - | 314 W/m² | - |
| 1778246429 | 15° C | 70% | 1013.2 hPa | 0 mm | - | 299 W/m² | - |
| 1778246129 | 15° C | 70% | 1013.1 hPa | 0 mm | - | 283 W/m² | - |
| 1778245829 | 14.44° C | 71% | 1013.1 hPa | 0 mm | - | 268 W/m² | - |
| 1778245529 | 14.44° C | 72% | 1013.1 hPa | 0 mm | - | 251 W/m² | - |
| 1778245228 | 13.89° C | 73% | 1013.1 hPa | 0 mm | - | 234 W/m² | - |
| 1778244929 | 13.89° C | 74% | 1013.1 hPa | 0 mm | - | 218 W/m² | - |
| 1778244629 | 13.33° C | 75% | 1013.2 hPa | 0 mm | - | 202 W/m² | - |
| 1778244328 | 13.33° C | 76% | 1013.2 hPa | 0 mm | - | 186 W/m² | - |
| 1778244029 | 12.78° C | 77% | 1013.2 hPa | 0 mm | - | 171 W/m² | - |
| 1778243729 | 12.78° C | 77% | 1013.2 hPa | 0 mm | - | 155 W/m² | - |
| 1778243428 | 12.22° C | 78% | 1013.1 hPa | 0 mm | - | 137 W/m² | - |
| 1778243129 | 12.22° C | 78% | 1013.1 hPa | 0 mm | - | 122 W/m² | - |
| 1778242829 | 12.22° C | 78% | 1013 hPa | 0 mm | - | 98 W/m² | - |
| 1778242531 | 12.22° C | 78% | 1012.9 hPa | 0 mm | - | 29 W/m² | - |
| 1778242229 | 12.22° C | 78% | 1012.8 hPa | 0 mm | - | 26 W/m² | - |
| 1778241929 | 12.22° C | 77% | 1012.8 hPa | 0 mm | - | 24 W/m² | - |
| 1778241628 | 12.22° C | 77% | 1012.7 hPa | 0 mm | - | 21 W/m² | - |
| 1778241329 | 11.67° C | 77% | 1012.7 hPa | 0 mm | - | 19 W/m² | - |
| 1778241029 | 11.67° C | 77% | 1012.7 hPa | 0 mm | - | 16 W/m² | - |
| 1778240729 | 11.67° C | 77% | 1012.6 hPa | 0 mm | - | 14 W/m² | - |
| 1778240429 | 11.67° C | 77% | 1012.6 hPa | 0 mm | - | 10 W/m² | - |
| 1778240129 | 11.67° C | 77% | 1012.6 hPa | 0 mm | - | 7 W/m² | - |
| 1778239829 | 11.67° C | 76% | 1012.6 hPa | 0 mm | - | 5 W/m² | - |
| 1778239529 | 12.22° C | 76% | 1012.5 hPa | 0 mm | - | 3 W/m² | - |
* Rain latest hour (hover to see other rain measurements)
** Current wind speed in m/s (hover to see current wind gust speed)